www.pogodaiklimat.ru

Погода и климат >> Архив погоды >> Вьетнам >> Ратьзя


ПОГОДА в Ратьзя

  • Прогноз погоды в Ратьзя
  • Монитор погоды в Ратьзя

АРХИВ ПОГОДЫ в Ратьзя

Время (UTC), дата Ветер
(напр.,м/с)
 
Видим.   Явления Облачность Т
(С)
Тd
(С)
f
(%)
Тe
(С)
Тes
(С)
Комфортность P
(гПа)
Po
(гПа)
Тmin
(С)
Tmax
(С)
R
(мм)
R24
(мм)
S
(см)
12 10.08 ЮЗ 5 20 км {ливн. осадки} 8/8 600 м
[Cu Sc]
+28.4 +24.9 81 +41 +41 опасность
перегрева
1005.5 1005.2 +30.5 8
15 10.08 З 3 20 км 8/4 600 м
[Cu Sc Ac trans Ci fib]
+27.0 +24.4 86 +38 +38 очень
душно
1007.8 1007.5
18 10.08 Ю 4 20 км 8/8 600 м
[Cu Sc]
+27.3 +25.4 89 +40 +40 очень
душно
1006.8 1006.5
21 10.08 Ю 3 20 км 6/6 600 м
[Cu med, cong]
+27.0 +25.3 90 +39 +39 очень
душно
1006.2 1005.9
00 11.08 ЮВ 1 10 км слаб. ливневой дождь 10/10 300 м
[Cb cap]
+27.4 +25.7 90 +40 +40 очень
душно
1007.6 1007.3 +26.4 0.0
03 11.08 ЮЗ 6 20 км {ливн. осадки} 8/8 600 м
[Cu med, cong]
+29.8 +26.6 83 +46 +47 опасность
перегрева
1009.1 1008.8
06 11.08 ЮЗ 5 10 км в посл. час ливневой дождь 9/9 300 м
[Cu med, cong]
+29.4 +26.0 82 +44 +45 опасность
перегрева
1007.3 1007.0 0.4
09 11.08 ЮЗ 5 10 км в посл. час ливневой дождь 9/9 300 м
[Cb cap]
+26.5 +24.9 91 +38 +38 очень
душно
1006.3 1006.0
12 11.08 ЮЗ 4 20 км {ливн. осадки} 8/8 600 м
[Cb cap]
+27.8 +25.3 86 +40 +40 очень
душно
1007.0 1006.7 +30.5 5
15 11.08 ЮЗ 2 20 км 8/4 600 м
[Cb cap Ac trans Ci fib]
+27.8 +26.1 90 +42 +42 опасность
перегрева
1007.9 1007.6
18 11.08 Ю 2 20 км 8/8 600 м
[Cu med, cong]
+27.7 +26.1 91 +42 +42 опасность
перегрева
1008.0 1007.7
21 11.08 Ю 3 20 км 8/8 300 м
[Cu med, cong]
+27.4 +26.2 93 +41 +41 опасность
перегрева
1007.6 1007.3
00 12.08 Ю 3 20 км 6/6 600 м
[Cb cap]
+27.6 +26.2 92 +42 +42 опасность
перегрева
1009.4 1009.1 +26.8
03 12.08 Ю 4 20 км 8/8 600 м
[Cu med, cong]
+30.0 +25.5 77 +44 +46 опасность
перегрева
1010.7 1010.4
06 12.08 З 3 20 км 9/3 600 м
[Cb cap Cs]
+31.0 +23.8 66 +43 +53 опасность
перегрева
1009.0 1008.7
09 12.08 З 4 20 км 9/3 600 м
[Cu med, cong Cs]
+31.0 +25.9 74 +46 +48 опасность
перегрева
1007.4 1007.1
12 12.08 Ю 2 20 км 8/3 1000 м
[Sc Cs]
+29.6 +24.7 75 +42 +42 опасность
перегрева
1007.6 1007.3 +31.7
15 12.08 ЮЗ 2 20 км 8/3 300 м
[Cb cap Cs]
+28.7 +26.0 85 +43 +43 опасность
перегрева
1008.9 1008.6
18 12.08 ЮЗ 3 20 км 8/0
[Cs]
+28.2 +25.3 84 +41 +41 опасность
перегрева
1009.5 1009.2
21 12.08 ЮЗ 3 20 км 8/3 300 м
[Cu med, cong Cs]
+27.6 +26.0 91 +41 +41 опасность
перегрева
1008.3 1008.0
00 13.08 ЮЗ 2 20 км 9/3 600 м
[Cu med, cong Cs]
+28.2 +26.1 88 +42 +44 опасность
перегрева
1010.1 1009.8 +27.0
03 13.08 З 3 20 км 9/3 600 м
[Cu med, cong Cs]
+30.3 +26.5 80 +46 +55 опасность
перегрева
1011.2 1010.9
06 13.08 З 4 20 км 9/4 600 м
[Cu med, cong Cs]
+31.6 +26.9 76 +49 +56 опасность
перегрева
1009.7 1009.4
09 13.08 З 4 20 км 8/3 300 м
[Cu med, cong Cs]
+30.8 +24.8 70 +44 +46 опасность
перегрева
1008.4 1008.1
12 13.08 З 4 20 км 9/0
[Cs]
+28.6 +24.4 78 +40 +40 очень
душно
1009.1 1008.8 +31.7
15 13.08 З 4 20 км 6/0
[Cs]
+27.7 +25.8 89 +41 +41 опасность
перегрева
1011.0 1010.7
18 13.08 З 5 20 км 9/3 300 м
[Cu hum Ci fib]
+28.2 +25.9 87 +42 +42 опасность
перегрева
1009.9 1009.6
21 13.08 З 3 20 км 8/8 600 м
[Cu Sc]
+28.2 +26.2 89 +43 +43 опасность
перегрева
1009.2 1008.9
00 14.08 З 5 20 км 9/4 600 м
[Cu med, cong Cs]
+28.7 +26.0 85 +43 +44 опасность
перегрева
1009.8 1009.5 +27.6
03 14.08 З 4 20 км 8/5 600 м
[Cu Sc Cs]
+30.9 +26.3 77 +47 +52 опасность
перегрева
1010.9 1010.6
06 14.08 З 4 20 км 8/3 600 м
[Cu med, cong Cs]
+31.5 +25.1 69 +45 +54 опасность
перегрева
1009.6 1009.3
09 14.08 З 6 20 км 9/4 600 м
[Cu Sc Cs]
+31.5 +25.4 70 +46 +47 опасность
перегрева
1007.6 1007.3
12 14.08 З 6 20 км 8/3 300 м
[Cu med, cong Cs]
+29.6 +25.5 79 +44 +44 опасность
перегрева
1008.5 1008.2 +31.8
15 14.08 З 5 20 км 9/5 300 м
[Cu med, cong Cs]
+29.2 +25.6 81 +43 +43 опасность
перегрева
1010.5 1010.2
18 14.08 З 6 20 км {ливн. осадки} 10/8 600 м
[Cb cap]
+28.8 +25.5 82 +42 +42 опасность
перегрева
1009.9 1009.6 0.0
21 14.08 З 4 20 км 6/6 600 м
[Cu med, cong]
+28.8 +25.8 84 +43 +43 опасность
перегрева
1009.7 1009.4
00 15.08 З 2 20 км {гроза, ливн. осадки} 9/9
[Cu Sc]
+27.5 +26.1 92 +41 +42 опасность
перегрева
1010.1 1009.8 +24.4 11
03 15.08 З 5 20 км 8/8 600 м
[Cb cap]
+30.4 +26.3 79 +46 +48 опасность
перегрева
1011.1 1010.8
06 15.08 З 7 20 км 8/4 600 м
[Cb cap Ac trans Ci fib]
+29.6 +25.2 77 +43 +45 опасность
перегрева
1009.7 1009.4 11
09 15.08 З 6 20 км 8/8 300 м
[Cb cap]
+30.3 +25.6 76 +45 +45 опасность
перегрева
1007.3 1007.0
12 15.08 З 6 20 км 6/6 600 м
[Cu med, cong]
+29.0 +25.4 81 +43 +43 опасность
перегрева
1007.9 1007.6 +30.8 11
15 15.08 З 5 20 км 4/4 300 м
[Cu med, cong]
+28.8 +26.0 85 +43 +43 опасность
перегрева
1009.3 1009.0
18 15.08 ЮЗ 4 20 км 8/8 300 м
[Cu med, cong]
+28.7 +26.3 87 +44 +44 опасность
перегрева
1008.9 1008.6
21 15.08 ЮЗ 3 10 км в посл. час ливневой дождь 8/8 600 м
[Cu Sc]
+28.0 +25.4 86 +41 +41 опасность
перегрева
1008.1 1007.8
00 16.08 ЮЗ 4 20 км {ливн. осадки} 8/8
[Cu med, cong]
+27.5 +24.6 84 +39 +39 очень
душно
1009.1 1008.8 +27.0 0.6
03 16.08 ЮЗ 7 20 км 8/8 600 м
[Cu med, cong]
+28.8 +24.8 79 +41 +42 опасность
перегрева
1010.4 1010.1
06 16.08 ЮЗ 6 20 км 8/8 600 м
[Cb cap]
+30.2 +25.4 76 +44 +46 опасность
перегрева
1009.2 1008.9 0.6
09 16.08 З 6 20 км 8/8 600 м
[Cu med, cong]
+30.8 +25.4 73 +45 +45 опасность
перегрева
1007.9 1007.6
12 16.08 З 6 10 км слаб. ливневой дождь 9/9 300 м
[Cb cap]
+28.0 +25.1 84 +40 +40 очень
душно
1008.8 1008.5 +30.2 2
15 16.08 ЮЗ 2 10 км 4/4 300 м
[Cu med, cong]
+28.7 +25.6 83 +42 +42 опасность
перегрева
1010.2 1009.9
18 16.08 ЮЗ 3 10 км в посл. час ливневой дождь 8/8 600 м
[Cb cap]
+28.4 +25.5 84 +42 +42 опасность
перегрева
1009.9 1009.6 0.1
21 16.08 Ю 2 10 км в посл. час дождь {ливн. осадки} 9/9 1000 м
[Sc]
+27.7 +26.0 90 +41 +41 опасность
перегрева
1009.3 1009.0
00 17.08 Ю 2 20 км {ливн. осадки, дождь} 9/1 600 м
[Cu med, cong Cs]
+28.2 +25.9 87 +42 +43 опасность
перегрева
1010.6 1010.3 +27.0 0.8
03 17.08 Ю 4 20 км 8/4 600 м
[Cu med, cong Cs]
+30.8 +26.3 77 +47 +53 опасность
перегрева
1011.5 1011.2
06 17.08 ЮЗ 6 20 км 9/3 600 м
[Cu med, cong Cs]
+31.4 +25.2 70 +45 +50 опасность
перегрева
1010.1 1009.8 0.8

 

Местоположение метеостанции Ратьзя (Вьетнам): широта 10.00 долгота 105.08 высота над уровнем моря 3 м.

В архиве по умолчанию представлена погода в Ратьзя за последнюю неделю. Архивные данные за месяц целиком и за предыдущие месяцы, начиная с января 2011 года, Вы можете получить, выбрав интересующий диапазон дат из раскрывающегося списка и нажав кнопку "Ввод!".


*Определитесь, кто Вы:
робот инопланетянин человек

Внимание! Время в таблицах - всемирное. Для получения местного времени необходимо прибавить поправку, которая равна 7 ч.

Смотрите также архив погоды в соседних городах и на ближайших метеорологических станциях:

Погода в Камау (Вьетнам) (92 км)
Погода на Фукуоке (Вьетнам) (125 км)
Погода в Хабе (Вьетнам) (193 км)
Погода на Тхочу (Вьетнам) (195 км)
Погода в Коншоне (Вьетнам) (222 км)
Погода в Клонг Яй (Таиланд) (311 км)
Погода в Фантхьете (Вьетнам) (346 км)
Погода в Фхлю Агромете (Таиланд) (422 км)
Погода в Чантабури (Таиланд) (434 км)
Погода в Буонметхуоте (Вьетнам) (443 км)

Пояснения к столбцам:

Ветер - указаны скорость ветра в м/с - средняя за 10 мин, порывы в срок и между сроками (в фигурных скобках) и направление, откуда дует ветер: С - северный, СВ - северо-восточный, В - восточный, ЮВ - юго-восточный, Ю - южный, ЮЗ - юго-западный, З - западный, СЗ - северо-западный.
Видимость - горизонтальная дальность видимости в метрах или километрах. При видимости от 1 до 10 км при отсутствии осадков обычно наблюдается дымка, при ухудшении видимости до 1 км и менее - туман. В сухую погоду видимость может ухудшаться дымом, пылью или мглою.
Явления - указаны атмосферные явления, наблюдавшиеся в срок или в последний час перед сроком; фигурными скобками обозначены явления, наблюдавшиеся между сроками (за 1-3 часа до срока); квадратными скобками обозначены град или гололедные отложения с указанием их диаметра в мм.
Облачность - указаны через наклонную черту общая и нижняя облачность в баллах и высота нижней границы облаков в метрах; квадратными скобками обозначены формы облаков: Ci - перистые, Cs - перисто-слоистые, Cc - перисто-кучевые, Ac - высококучевые, As - высокослоистые, Sc - слоисто-кучевые, Ns - слоисто-дождевые, Cu - кучевые, Cb - кучево-дождевые. Подробнее классификацию облаков см. в Атласе облаков (PDF).
T - Температура воздуха - температура, измеренная на высоте 2 м над землей.
Td - Температура точки росы - температура, при понижении до которой содержащийся в воздухе водяной пар достигнет насыщения.
f - Относительная влажность воздуха - влажноcть воздуха, измеренная на высоте 2 м над землей.
Te - Эффективная температура - температура, которую ощущает одетый по сезону человек в тени. Характеристика душности погоды. При расчете учитывается влияние влажности воздуха и скорости ветра на теплоощущения человека.
Tes - Эффективная температура на солнце - температура, которую ощущает человек, с поправкой на солнечный нагрев. Характеристика знойности погоды. Зависит от высоты солнца над горизонтом, облачности и скорости ветра. Ночью, в пасмурную погоду, а также при ветре 12 м/с и более поправка равна нулю.
P - Атмосферное давление - приведенное к уровню моря атмосферное давление.
Po - Атмосферное давление - измеренное на уровне метеостанции атмосферное давление.
Tmin - Минимальная температура - минимум температуры воздуха на высоте 2 м над землей.
Tmax - Максимальная температура - максимум температуры воздуха на высоте 2 м над землей.
R - Количество осадков - Количество выпавших осадков за период времени, мм. При наведении курсора мыши на число - период времени, за который выпало указанное количество осадков.
R24 - Количество осадков - Количество выпавших осадков за 24 часа, мм.
S - Снежный покров - Высота снежного покрова, см. При наведении курсора мыши на число - состояние снежного покрова и степень покрытия местности в баллах.